Weather in Argos

Greece     37°38′05″N   22°43′58″E
temp.,
°C
wind,
m/s
gust,
m/s
humid.,
%
clouds,
%
prec.,
mm/h
press.,
hPa
HPBL,
m
24 september, fri
fri2400:00+13nnw22600 0.0 102116
03:00+12nnw11650 0.0 102013
06:00+12nnw11650 0.0 102011
09:00+15wnw11463 0.0 1020177
12:00+22se11243 0.0 10201168
15:00+25e23190 0.0 10171527
18:00+23s22280 0.0 1017633
21:00+16sw11550 0.0 101915
25 september, sat
sat2500:00+15wnw01585 0.0 101911
03:00+15nw11575 0.0 101912
06:00+15nnw11535 0.0 101811
09:00+20n11373 0.0 1020124
12:00+27e11200 0.0 10201012
15:00+30sse22160 0.0 10181566
18:00+26s33280 0.0 1019546
21:00+19ssw11530 0.0 102111
26 september, sun
sun2600:00+18nw11460 0.0 102111
03:00+18nnw11410 0.0 102011
06:00+17n22430 0.0 102011
09:00+22n22330 0.0 1020145
12:00+29nne22190 0.0 10201101
15:00+30ne33150 0.0 10181726
18:00+28se12190 0.0 1017856
21:00+20sw11470 0.0 101811
27 september, mon
mon2700:00+19nw11400 0.0 101811
03:00+19nnw11340 0.0 101712
06:00+19n22350 0.0 101613
09:00+23n12280 0.0 1016123
12:00+30nne23175 0.0 10151126
15:00+32ne33140 0.0 10131563
18:00+29s222181 0.0 1013531
21:00+20wsw01450 0.0 101511
28 september, tue
tue2800:00+21w11364 0.0 101411
03:00+20n113818 0.0 101411
06:00+20n113843 0.0 101311
09:00+23nne113664 0.0 1013118
12:00+28ene122785 0.0 10131180
15:00+30sse232398 0.0 10121461
18:00+26s233541 0.0 1013817
21:00+21wnw0060100 0.0 101416